TIUNGSAT 1

Satellite information

Favourite Embed

Satellite Type and Status

PAYLOADIN ORBIT

Key statistics

Satellite TIUNGSAT 1 at a glance.

Uptime

9157

Days in orbit

Revolutions

≈ 15.0

Per day

Orbit

LEO

Low Earth Orbit

Inclination

64.5

Latest

Satellite identification and parameters

Extended collection of information and parameters for TIUNGSAT 1.

Object identification

Identified? True

Debris? False

Object name: TIUNGSAT 1

International designator: 2000-057D

Object number (NORAD): 26548

Object ID (CCSDS): 26548

Country: MALAYSIA (MALA)

Current information (Y/N): Y

RCS size: MEDIUM

Orbital parameters

Period: 96.002 minutes

Inclination: 64.5474 deg

SMA: 6945.118 km

Apoapsis: 584.685 km

Periapsis: 549.281 km

RAAN: 167.1751 deg

Eccentricy: 0.00254884

Argument of periapsis: 313.8813 deg

Mean anomaly: 46.0196 deg

Mean motion: 14.99972657 rev/day

Mean motion (dot): 0.00004792 rev/day2

B* drag term: 0.00039498062 1/REarth

Two-line elements (TLE)

Creation date: Oct. 21, 2025, 3:26 a.m.

Reference frame: TEME

Reference center: EARTH

Epoch: Oct. 20, 2025, 9:31 p.m. UTC

TLE line 0: 0 TIUNGSAT 1

TLE line 1: 1 26548U 00057D 25293.89674948 .00004792 00000-0 39498-3 0 9991

TLE line 2: 2 26548 64.5474 167.1751 0025488 313.8813 46.0196 14.99972657360317

Live tracking on map

Real-time ground track for satellite TIUNGSAT 1.

In-orbit conjunctions

A list of the most updated potential collisions computed for object TIUNGSAT 1.

Target Orbit TCA Probability of collision Miss distance Type
OBJECT M SSO 2024-07-26 08:55:09 0.0001422485 588.0 (m) UNKNOWN
DELTA 4 DEB SSO 2024-06-18 01:13:43 0.000503975 810.0 (m) DEBRIS

Associated space launch

Four small satellites were launched atop the Dnepr launch vehicle : MegSat 1, UniSat 1, TiungSat 1 as well as SaudiSat 1a and 1b. MegSat 1 is the second MegSat satellite. It is a LEO communications satellite. UniSat 1 is an Italian satellite developed and operated by GAUSS (La Sapienza University of Rome). TiungSAT-1 or MySat (Malaysian Satellite) is the first microsatellite for the Astronautic Technology (M) SDN. BHD. Company (ATSB) in Kuala Lumpur, Malaysia. Saudisat-1a and Saudisat-1b (Saudi Arabian Satellite) are the first Saudi Arabian micro satellites.

TIUNGSAT 1 was lifted into orbit during the mission ‘Dnepr | SmallSat Rideshare’, on board a Dnepr space rocket.

The launch took place on Sept. 26, 2000, 10:05 a.m. from 109/95.

For more information about the launch, click the button.

Launch to space Dnepr | SmallSat Rideshare
Dnepr | SmallSat Rideshare

Agency: N/A

Status: Launch Successful

Launch date: Sept. 26, 2000, 10:05 a.m. UTC

Rocket: Dnepr

Launch pad: 109/95

Location: Baikonur Cosmodrome, Republic of Kazakhstan

...

Latest news about this satellite

There are no fresh news available about this satellite. Check back as we update our databases every day.


Newsletter sign-up

Weekly statistics, charts and insights to help you stay on top of the space industry.